This is the latest recevied weather packets stored in our database for station/object K0SDS. If no packets are shown the sender has not sent any weather packets the latest 10 day(s).
| Time | Temp. | Humidity | Pressure | Rain* | Wind** | Luminosity | Snow |
|---|---|---|---|---|---|---|---|
| 1788570381 | 30.56° C | 62% | 1011.2 hPa | 0 mm | - | 0 W/m² | - |
| 1788570076 | 31.11° C | 60% | 1011.1 hPa | 0 mm | - | 0 W/m² | - |
| 1788569772 | 31.11° C | 59% | 1011.2 hPa | 0 mm | - | 0 W/m² | - |
| 1788569468 | 31.67° C | 58% | 1011.2 hPa | 0 mm | - | 0 W/m² | - |
| 1788569162 | 31.67° C | 58% | 1011.3 hPa | 0 mm | - | 2 W/m² | - |
| 1788568857 | 32.78° C | 56% | 1011.2 hPa | 0 mm | - | 4 W/m² | - |
| 1788568553 | 32.78° C | 54% | 1011.2 hPa | 0 mm | - | 8 W/m² | - |
| 1788568249 | 33.33° C | 54% | 1011.2 hPa | 0 mm | - | 10 W/m² | - |
| 1788567944 | 33.89° C | 53% | 1011.2 hPa | 0 mm | - | 14 W/m² | - |
| 1788567644 | 34.44° C | 51% | 1011 hPa | 0 mm | - | 16 W/m² | - |
| 1788567339 | 35° C | 50% | 1011.2 hPa | 0 mm | - | 20 W/m² | - |
| 1788567033 | 35° C | 49% | 1011.4 hPa | 0 mm | - | 34 W/m² | - |
| 1788566728 | 35° C | 49% | 1011.2 hPa | 0 mm | - | 24 W/m² | - |
| 1788566425 | 35° C | 48% | 1011.2 hPa | 0 mm | - | 53 W/m² | - |
| 1788566119 | 35° C | 48% | 1011.2 hPa | 0 mm | - | 65 W/m² | - |
| 1788565819 | 35° C | 47% | 1011.4 hPa | 0 mm | - | 32 W/m² | - |
| 1788565519 | 35° C | 48% | 1011.2 hPa | 0 mm | - | 36 W/m² | - |
| 1788565215 | 35.56° C | 47% | 1011.2 hPa | 0 mm | - | 93 W/m² | - |
| 1788564910 | 35.56° C | 47% | 1011.3 hPa | 0 mm | - | 92 W/m² | - |
| 1788564606 | 35.56° C | 46% | 1011.3 hPa | 0 mm | - | 113 W/m² | - |
| 1788564302 | 35.56° C | 45% | 1011.3 hPa | 0 mm | - | 47 W/m² | - |
| 1788563999 | 35.56° C | 46% | 1011.4 hPa | 0 mm | - | 47 W/m² | - |
| 1788563694 | 35.56° C | 45% | 1011.3 hPa | 0 mm | - | 121 W/m² | - |
| 1788563389 | 35.56° C | 45% | 1011.4 hPa | 0 mm | - | 48 W/m² | - |
| 1788563087 | 35.56° C | 45% | 1011.3 hPa | 0 mm | - | 155 W/m² | - |
* Rain latest hour (hover to see other rain measurements)
** Current wind speed in m/s (hover to see current wind gust speed)